Monte Cimone, Italy

1:47 AM CET on December 05, 2016 (GMT +0100)
Monte Cimone

Weather History for LIVC - October, 2012

Change the Weather History Date:

Sunday, October 7, 2012

  Actual Average Record
Temperature  
Mean Temperature 48 °F -  
Max Temperature 50 °F 42 °F 53 °F (2004)
Min Temperature 45 °F 36 °F 24 °F (1996)
Degree Days  
Heating Degree Days 18    
Moisture  
Dew Point 41 °F    
Average Humidity 77    
Maximum Humidity 100    
Minimum Humidity 53    
Precipitation  
Precipitation 0.00 in - - ()
Sea Level Pressure  
Sea Level Pressure 30.15 in    
Wind  
Wind Speed 19 mph ()    
Max Wind Speed 30 mph    
Max Gust Speed -    
Visibility 7.4 miles    
Events Fog    
Averages and records for this station are not official NWS values.
T = Trace of Precipitation, MM = Missing Value Source: Averaged Metar Reports

Daily Weather History Graph

Daily Weather History Graph

Search for Another Location

Airport or City:

Trip Planner

Search our weather history database for the weather conditions in past years. The results will help you decide how hot, cold, wet, or windy it might be!

Date:

Astronomy

Oct. 07, 2012 Rise Set
Actual Time 7:22 AM CEST 6:46 PM CEST
Civil Twilight 6:53 AM CEST 7:15 PM CEST
Nautical Twilight 6:19 AM CEST 7:49 PM CEST
Astronomical Twilight 5:46 AM CEST 8:22 PM CEST
Moon 11:33 PM CEST (10/7) 1:57 PM CEST (10/7)
Length of Visible Light 12h 22m
Length of Day
11h 24m
Waning Gibbous, 58% of the Moon is Illuminated
Oct 7
Waning Gibbous
Oct 8
Last Quarter
Oct 15
New
Oct 22
First Quarter
Oct 29
Full

Hourly Weather History & Observations

Time (CEST) Temp. Windchill Dew Point Humidity Pressure Visibility Wind Dir Wind Speed Gust Speed Precip Events Conditions
12:55 AM 46.4 °F 39.0 °F 33.8 °F 62% 30.21 in - WSW 19.6 mph - N/A   Clear
1:55 AM 46.4 °F 39.2 °F 33.8 °F 62% 30.21 in 6.2 mi WSW 18.4 mph - N/A   Partly Cloudy
2:00 AM 46 °F - 35 °F 53%  in 19 mi WSW 18.4 mph - -   Scattered Clouds
2:55 AM 46.4 °F 39.0 °F 33.8 °F 62% 30.21 in 6.2 mi WSW 19.6 mph - N/A   Mostly Cloudy
3:55 AM 46.4 °F 38.7 °F 35.6 °F 66% 30.18 in 6.2 mi WSW 20.7 mph - N/A   Mostly Cloudy
4:55 AM 46.4 °F 39.2 °F 39.2 °F 76% 30.18 in 6.2 mi WSW 18.4 mph - N/A   Mostly Cloudy
5:55 AM 44.6 °F 36.4 °F 41.0 °F 87% 30.15 in 6.2 mi WSW 20.7 mph - N/A   Mostly Cloudy
6:55 AM 44.6 °F 36.1 °F 41.0 °F 87% 30.15 in 6.2 mi WSW 21.9 mph - N/A   Scattered Clouds
7:55 AM 44.6 °F 35.5 °F 42.8 °F 93% 30.15 in 6.2 mi WSW 25.3 mph - N/A   Mostly Cloudy
8:00 AM 45 °F - 42 °F 86%  in 12 mi WSW 25.3 mph - -   Mostly Cloudy
8:55 AM 46.4 °F 37.5 °F 41.0 °F 81% 30.15 in 6.2 mi WSW 27.6 mph - N/A   Scattered Clouds
9:55 AM 46.4 °F 38.7 °F 41.0 °F 81% 30.15 in 6.2 mi WSW 20.7 mph - N/A   Overcast
10:55 AM 46.4 °F 37.2 °F 42.8 °F 87% 30.12 in 6.2 mi WSW 29.9 mph - N/A   Scattered Clouds
11:55 AM 46.4 °F 37.9 °F 46.4 °F 100% 30.12 in 6.2 mi WSW 25.3 mph - N/A   Scattered Clouds
12:55 PM 48.2 °F - 41.0 °F 76% 30.12 in 6.2 mi WSW 24.2 mph - N/A   Partly Cloudy
1:55 PM 50.0 °F - 42.8 °F 76% 30.12 in 6.2 mi WSW 23.0 mph - N/A   Partly Cloudy
2:00 PM 49 °F - 42 °F 69%  in 12 mi WSW 23.0 mph - -   Scattered Clouds
2:55 PM 50.0 °F - 44.6 °F 82% 30.12 in 6.2 mi WSW 26.5 mph - N/A   Partly Cloudy
3:55 PM 48.2 °F - 46.4 °F 93% 30.12 in 0.1 mi WSW 28.8 mph - N/A Fog Fog
4:55 PM 48.2 °F - 44.6 °F 87% 30.12 in 6.2 mi WSW 27.6 mph - N/A   Mostly Cloudy
5:55 PM 48.2 °F - 44.6 °F 87% 30.12 in 6.2 mi WSW 24.2 mph - N/A   Scattered Clouds
6:55 PM 48.2 °F - 44.6 °F 87% 30.12 in 6.2 mi WSW 23.0 mph - N/A   Mostly Cloudy
7:55 PM 48.2 °F - 44.6 °F 87% 30.15 in 6.2 mi WSW 21.9 mph - N/A   Scattered Clouds
8:00 PM 47 °F - 44 °F 85%  in 19 mi WSW 21.9 mph - -   Partly Cloudy
8:55 PM 50.0 °F - 39.2 °F 66% 30.15 in 6.2 mi North 16.1 mph - N/A   Partly Cloudy
9:55 PM 50.0 °F - 33.8 °F 54% 30.15 in 6.2 mi North 13.8 mph - N/A   Partly Cloudy
10:55 PM 50.0 °F - 39.2 °F 66% 30.18 in 6.2 mi North 13.8 mph - N/A   Partly Cloudy
11:55 PM 48.2 °F - 39.2 °F 71% 30.18 in 6.2 mi North 12.7 mph - N/A   Partly Cloudy